Location: Holbach
(51.5399°N, 10.6036°E)
Time: 06:26:18
(UTC+00:00)

Cosmos 1092 Rocket - Pass Details

Date: 18 September 2020
Orbit: 954 x 995 km, 82.9° (Epoch: 19 October)

Event Time Altitude Azimuth Distance (km) Brightness Sun altitude
Rises 19:47:49 0° 348° (NNW) 3,646 7.7 -21.9°
Reaches altitude 10° 19:50:20 10° 346° (NNW) 2,697 6.9 -22.2°
Maximum altitude 19:56:27 71° 265° (W) 1,015 4.1 -23.0°
Enters shadow 20:00:16 24° 186° (S) 1,863 5.2 -23.4°
